Regional Weather Roundup
Issued by NWS Raleigh/Durham, NC

Home | Current Version | Previous Version | Text Only | Print | Product List | Glossary On
Versions: 1 2 3 4 5 6 7 8 9 10 11 12 13 14 15 16 17 18 19 20 21 22 23 24 25 26 27 28 29 30 31 32 33 34 35 36 37 38 39 40 41 42 43 44 45 46 47 48 49 50
000
ASUS42 KRAH 280510
RWRRAH
NORTH CAROLINA WEATHER ROUNDUP
NATIONAL WEATHER SERVICE RALEIGH NC
100 AM EDT FRI AUG 28 2015

NOTE: "FAIR" INDICATES FEW OR NO CLOUDS BELOW 12,000 FEET WITH NO
SIGNIFICANT WEATHER AND/OR OBSTRUCTIONS TO VISIBILITY.

NCZ001-053-055-056-065-067-280600-
WESTERN NORTH CAROLINA

CITY           SKY/WX    TMP DP  RH WIND       PRES   REMARKS
ASHEVILLE      CLEAR     62  58  86 CALM      30.19S
JEFFERSON      CLOUDY    63  55  76 CALM      30.24S
MORGANTON      MOCLDY    65  64  93 CALM      30.20S
HICKORY        CLEAR     67  63  87 CALM      30.15R
RUTHERFORDTON  CLEAR     68  61  78 NE3       30.15S
MOUNT AIRY     MOCLDY    71  61  71 E3        30.19R
BOONE          CLEAR     58  58 100 CALM      30.25S
$$

NCZ021-022-025-041-071-084-088-280600-
CENTRAL NORTH CAROLINA

CITY           SKY/WX    TMP DP  RH WIND       PRES   REMARKS
CHARLOTTE      PTCLDY    72  60  66 E7        30.14R
GREENSBORO     PTCLDY    69  60  73 NE3       30.15S
WINSTON-SALEM  CLEAR     67  60  78 CALM      30.16S
RALEIGH-DURHAM MOCLDY    67  60  78 CALM      30.14R
FORT BRAGG     PTCLDY    69  64  84 E6        30.11S
FAYETTEVILLE   PTCLDY    67  64  90 NE6       30.11S
BURLINGTON     CLEAR     66  61  84 CALM      30.15R
LAURINBURG     MOCLDY    68  63  84 NE7       30.12R
$$

NCZ011-015-027-028-043-044-047-080-103-280600-
NORTHEASTERN NORTH CAROLINA

CITY           SKY/WX    TMP DP  RH WIND       PRES   REMARKS
ROCKY MT-WILSO PTCLDY    65  62  90 CALM      30.13S
GREENVILLE     PTCLDY    66  64  94 CALM      30.13S
WASHINGTON     MOCLDY    69  64  82 NE6       30.11S
ELIZABETH CITY CLOUDY    73  64  73 N6        30.12S
MANTEO         PTCLDY    74  63  68 NE12      30.11S
CAPE HATTERAS  PTCLDY    73  69  87 NE9       30.07S
$$

NCZ078-087-090-091-093-098-101-280600-
SOUTHEASTERN NORTH CAROLINA

CITY           SKY/WX    TMP DP  RH WIND       PRES   REMARKS
LUMBERTON      MOCLDY    71  64  78 NE5       30.10S
GOLDSBORO      PTCLDY    68  64  86 NE6       30.11R
KINSTON        CLOUDY    68  65  89 CALM      30.12S
KENANSVILLE      N/A     67  65  91 CALM      30.12R
NEW BERN       MOCLDY    70  63  78 NE5       30.11R
CHERRY POINT   MOCLDY    72  65  78 NE10      30.10R
BEAUFORT       MOCLDY    71  69  93 NE7       30.08R
JACKSONVILLE   CLOUDY    70  63  78 N5        30.09R
WILMINGTON     CLOUDY    70  66  87 NE8       30.08R
$$



USA.gov is the U.S. government's official web portal to all federal, state and local government web resources and services.